Location: Cazarilh
(42.9578°N, 0.5819°E)
Time: 08:35:04
(UTC+00:00)

Cosmos 1634 Rocket - Pass Details

Date: 11 December 2019
Orbit: 960 x 992 km, 82.9° (Epoch: 19 January)

Event Time Altitude Azimuth Distance (km) Brightness Sun altitude
Rises 05:05:20 0° 184° (S) 3,655 7.1 -23.5°
Reaches altitude 10° 05:07:50 10° 184° (S) 2,707 6.4 -23.0°
Maximum altitude 05:14:02 86° 95° (E) 975 3.9 -21.9°
Drops below altitude 10° 05:20:15 10° 9° (N) 2,708 6.3 -20.8°
Sets 05:22:45 0° 9° (N) 3,656 7.0 -20.4°
